Home   Weather   Coeur d'Alene   Past weeks

Flag for USA Past Weather in Coeur d'Alene, Idaho, USA — Yesterday and Last 2 Weeks

Now
84 °F

Sunny.


Feels Like: 82 °F
Forecast: 52 / 79 °F
Wind: 5 mph from Southeast

Location: Felts Field

Current Time: Sep 26, 2016 at 5:15:16 PM

Latest Report: Sep 26, 2016 at 4:53 PM


Visibility: 10 mi

Pressure: 30.03 "Hg (27.88 "Hg at 655m altitude)

Humidity: 27%

Dew Point: 47 °F

Location of Coeur d'AleneLocation

Past Weather in Coeur d'Alene — Graph

°F

Coeur d'Alene Temperature Yesterday

Maximum temperature yesterday: 77 °F (at 3:53 PM)
Minimum temperature yesterday: 53 °F (at 11:53 PM)
Average temperature yesterday: 62 °F

High & Low Weather Summary for the Past Weeks

 TemperatureHumidityPressure
High84 °F (Sep 26, 3:53 PM)87% (Sep 17, 9:53 AM)30.43 "Hg (Sep 17, 9:53 AM)
Low39 °F (Sep 14, 5:53 AM)15% (Sep 13, 4:53 PM)29.81 "Hg (Sep 17, 6:53 PM)
Average59 °F53%30.06 "Hg
* Reported Sep 11 3:53 PM — Sep 26 3:53 PM, Coeur d'Alene, Weather by CustomWeather, © 2016

Note: Actual official high and low records may vary slightly from our data, if they occured in-between our weather recording intervals... More about our weather records

Advertising

Coeur d'Alene Weather History for the Previous 24 Hours

Scroll right to see more
 ConditionsComfort  
Time TempWeatherWind HumidityBarometerVisibility
3:53 PM
Mon, Sep 26
84 °FSunny.3 mph27%30.06 "Hg10 mi
2:53 PM81 °FSunny.3 mph29%30.09 "Hg8 mi
1:53 PM80 °FSunny.5 mph31%30.12 "Hg10 mi
12:53 PM75 °FSunny.3 mph36%30.16 "Hg10 mi
11:53 AM70 °FSunny.3 mph41%30.20 "Hg10 mi
10:53 AM67 °FSunny.No wind47%30.23 "Hg10 mi
9:53 AM61 °FSunny.No wind58%30.25 "Hg10 mi
8:53 AM57 °FSunny.No wind64%30.27 "Hg10 mi
7:53 AM53 °FSunny.No wind72%30.28 "Hg10 mi
6:53 AM48 °FSunny.No wind83%30.28 "Hg10 mi
5:53 AM49 °FClear.No wind84%30.28 "Hg10 mi
4:53 AM49 °FClear.No wind84%30.28 "Hg10 mi
3:53 AM50 °FClear.No wind77%30.28 "Hg10 mi
2:53 AM51 °FClear.No wind74%30.30 "Hg10 mi
1:53 AM54 °FClear.No wind69%30.31 "Hg10 mi
12:53 AM53 °FClear.3 mph72%30.32 "Hg10 mi
11:53 PM
Sun, Sep 25
53 °FClear.3 mph69%30.33 "Hg10 mi
10:53 PM58 °FClear.3 mph58%30.33 "Hg10 mi
9:53 PM57 °FClear.5 mph55%30.34 "Hg10 mi
8:53 PM62 °FClear.3 mph46%30.34 "Hg10 mi
7:53 PM61 °FClear.5 mph52%30.34 "Hg10 mi
6:53 PM67 °FClear.No wind39%30.33 "Hg10 mi
5:53 PM75 °FSunny.5 mph30%30.32 "Hg10 mi
Weather by CustomWeather, © 2016

See weather overviewHow to use our weather pages